
11:56:20 AM 942 Tuesday, May 21, 2019  Message :- Start Log.....!!!

windowsName : Windows 10 Enterprise
version : 6.3
build : 18362
Product ID : 1814
64 Bit operating system? : Yes
===========================================Start==========================================
Caption : Intel64 Family 6 Model 142 Stepping 9
CreationClassName : Win32_Processor
CurrentClockSpeed : 2600
CurrentVoltage : 8
Manufacturer : GenuineIntel
MaxClockSpeed : 2701
Name : Intel(R) Core(TM) i5-7200U CPU @ 2.50GHz
NumberOfCores : 2
NumberOfLogicalProcessors : 4
PowerManagementSupported : False
Status : OK
=========================================END============================================

12:52:01 186 15 October 2019  Message :- Save call Start

12:52:01 428 15 October 2019  Message :- Start Log.....!!!

12:52:01 435 15 October 2019  Message :- Zip Start AD

12:52:01 676 15 October 2019  Message :- Zip End

12:52:03 224 15 October 2019  Message :- get Download paramenter 1st time

12:52:03 581 15 October 2019  Message :- start vishal task

12:52:04 373 15 October 2019  Message :- end vishal task

12:52:04 396 15 October 2019  Message :- first time download

12:52:04 402 15 October 2019  Message :-  Done version

12:52:04 406 15 October 2019  Message :-  start Port

12:52:04 425 15 October 2019  Message :-  Got Port

12:52:04 430 15 October 2019  Message :- start opening port

12:52:04 434 15 October 2019  Message :- port open 

12:52:04 438 15 October 2019  Message :- Done ctor, start event instialize

12:52:04 442 15 October 2019  Message :-  open call

12:52:04 453 15 October 2019  Message :- close hota open kela done 

12:52:04 458 15 October 2019  Message :-  open call end ,  start Port Done in PP3 class

12:52:04 488 15 October 2019  Message :-  sent 1st

12:52:04 693 15 October 2019  Message :-  Got 1

12:52:04 827 15 October 2019  Message :- Start 0%

12:52:04 834 15 October 2019  Message :- pathvli ek

12:52:04 855 15 October 2019  Message :- 1st cha response 221

12:52:04 916 15 October 2019  Message :- 2st cha response 221

12:52:05 197 15 October 2019  Message :- Project cha response 221 Completed :) 

12:52:05 229 15 October 2019  Message :- port Exist and it is Closed

12:52:05 237 15 October 2019  Message :- End 100%

12:53:01 205 15 October 2019  Message :- Save call Start

12:53:01 534 15 October 2019  Message :- Start Log.....!!!

12:53:01 540 15 October 2019  Message :- Zip Start AD

12:53:01 631 15 October 2019  Message :- Zip End

12:53:02 974 15 October 2019  Message :- get Download paramenter 1st time

12:53:03 366 15 October 2019  Message :- start vishal task

12:53:04 73 15 October 2019  Message :- end vishal task

12:53:04 97 15 October 2019  Message :- first time download

12:53:04 101 15 October 2019  Message :-  Done version

12:53:04 106 15 October 2019  Message :-  start Port

12:53:04 123 15 October 2019  Message :-  Got Port

12:53:04 128 15 October 2019  Message :- start opening port

12:53:04 132 15 October 2019  Message :- port open 

12:53:04 136 15 October 2019  Message :- Done ctor, start event instialize

12:53:04 141 15 October 2019  Message :-  open call

12:53:04 149 15 October 2019  Message :- close hota open kela done 

12:53:04 154 15 October 2019  Message :-  open call end ,  start Port Done in PP3 class

12:53:04 182 15 October 2019  Message :-  sent 1st

12:53:04 387 15 October 2019  Message :-  Got 1

12:53:04 554 15 October 2019  Message :-  started sending Application

12:53:04 580 15 October 2019  Message :- 1st cha response 221

12:53:04 652 15 October 2019  Message :- 2st cha response 221

12:53:04 927 15 October 2019  Message :- Project cha response 221 Completed :) 

12:53:05 11 15 October 2019  Message :- port Exist and it is Closed

12:53:05 24 15 October 2019  Message :- End 100%

13:07:17 827 15 October 2019  Message :- Start Log.....!!!

windowsName : Windows 10 Enterprise
version : 6.3
build : 18362
Product ID : 1814
64 Bit operating system? : Yes
===========================================Start==========================================
Caption : Intel64 Family 6 Model 142 Stepping 9
CreationClassName : Win32_Processor
CurrentClockSpeed : 2600
CurrentVoltage : 8
Manufacturer : GenuineIntel
MaxClockSpeed : 2701
Name : Intel(R) Core(TM) i5-7200U CPU @ 2.50GHz
NumberOfCores : 2
NumberOfLogicalProcessors : 4
PowerManagementSupported : False
Status : OK
=========================================END============================================

14:06:17 759 15 October 2019  Message :- Start Log.....!!!

14:06:36 689 15 October 2019  Message :- Save call Start

14:06:36 908 15 October 2019  Message :- Start Log.....!!!

14:06:36 923 15 October 2019  Message :- Zip Start AD

14:06:37 189 15 October 2019  Message :- Zip End

14:06:40 750 15 October 2019  Message :- get Download paramenter 1st time

14:06:41 141 15 October 2019  Message :- start vishal task

14:06:42 47 15 October 2019  Message :- end vishal task

14:06:42 78 15 October 2019  Message :- first time download

14:06:42 78 15 October 2019  Message :-  Done version

14:06:42 78 15 October 2019  Message :-  start Port

14:06:42 110 15 October 2019  Message :-  Got Port

14:06:42 110 15 October 2019  Message :- start opening port

14:06:42 110 15 October 2019  Message :- port open 

14:06:42 125 15 October 2019  Message :- Done ctor, start event instialize

14:06:42 125 15 October 2019  Message :-  open call

14:06:42 141 15 October 2019  Message :- close hota open kela done 

14:06:42 141 15 October 2019  Message :-  open call end ,  start Port Done in PP3 class

14:06:42 172 15 October 2019  Message :-  sent 1st

14:06:42 391 15 October 2019  Message :-  Got 1

14:06:42 547 15 October 2019  Message :-  started sending Application

14:06:42 578 15 October 2019  Message :- 1st cha response 221

14:06:42 672 15 October 2019  Message :- 2st cha response 221

14:06:42 953 15 October 2019  Message :- Project cha response 221 Completed :) 

14:06:43 47 15 October 2019  Message :- port Exist and it is Closed

14:06:43 62 15 October 2019  Message :- End 100%

14:08:11 842 15 October 2019  Message :- Save call Start

14:08:12 186 15 October 2019  Message :- Start Log.....!!!

14:08:12 186 15 October 2019  Message :- Zip Start AD

14:08:12 264 15 October 2019  Message :- Zip End

14:08:13 561 15 October 2019  Message :- get Download paramenter 1st time

14:08:13 920 15 October 2019  Message :- start vishal task

14:08:14 654 15 October 2019  Message :- end vishal task

14:08:14 686 15 October 2019  Message :- first time download

14:08:14 686 15 October 2019  Message :-  Done version

14:08:14 701 15 October 2019  Message :-  start Port

14:08:14 717 15 October 2019  Message :-  Got Port

14:08:14 717 15 October 2019  Message :- start opening port

14:08:14 717 15 October 2019  Message :- port open 

14:08:14 732 15 October 2019  Message :- Done ctor, start event instialize

14:08:14 732 15 October 2019  Message :-  open call

14:08:14 748 15 October 2019  Message :- close hota open kela done 

14:08:14 748 15 October 2019  Message :-  open call end ,  start Port Done in PP3 class

14:08:14 779 15 October 2019  Message :-  sent 1st

14:08:14 998 15 October 2019  Message :-  Got 1

14:08:15 185 15 October 2019  Message :- Start 0%

14:08:15 201 15 October 2019  Message :- pathvli ek

14:08:15 217 15 October 2019  Message :- 1st cha response 221

14:08:15 295 15 October 2019  Message :- 2st cha response 221

14:08:15 561 15 October 2019  Message :- Project cha response 221 Completed :) 

14:08:15 638 15 October 2019  Message :- port Exist and it is Closed

14:08:15 638 15 October 2019  Message :- End 100%

14:13:31 298 15 October 2019  Message :- Save call Start

14:13:31 642 15 October 2019  Message :- Start Log.....!!!

14:13:31 642 15 October 2019  Message :- Zip Start AD

14:13:31 736 15 October 2019  Message :- Zip End

14:13:32 939 15 October 2019  Message :- get Download paramenter 1st time

14:13:33 298 15 October 2019  Message :- start vishal task

14:13:33 938 15 October 2019  Message :- end vishal task

14:13:33 954 15 October 2019  Message :- first time download

14:13:33 970 15 October 2019  Message :-  Done version

14:13:33 970 15 October 2019  Message :-  start Port

14:13:33 985 15 October 2019  Message :-  Got Port

14:13:33 985 15 October 2019  Message :- start opening port

14:13:34 1 15 October 2019  Message :- port open 

14:13:34 1 15 October 2019  Message :- Done ctor, start event instialize

14:13:34 1 15 October 2019  Message :-  open call

14:13:34 17 15 October 2019  Message :- close hota open kela done 

14:13:34 17 15 October 2019  Message :-  open call end ,  start Port Done in PP3 class

14:13:34 48 15 October 2019  Message :-  sent 1st

14:13:34 267 15 October 2019  Message :-  Got 1

14:13:34 423 15 October 2019  Message :- Start 0%

14:13:34 438 15 October 2019  Message :- pathvli ek

14:13:34 454 15 October 2019  Message :- 1st cha response 221

14:13:34 548 15 October 2019  Message :- 2st cha response 221

14:13:34 813 15 October 2019  Message :- Project cha response 221 Completed :) 

14:13:34 876 15 October 2019  Message :- port Exist and it is Closed

14:13:34 876 15 October 2019  Message :- End 100%

14:14:35 139 15 October 2019  Message :- Save call Start

14:14:35 436 15 October 2019  Message :- Start Log.....!!!

14:14:35 436 15 October 2019  Message :- Zip Start AD

14:14:35 529 15 October 2019  Message :- Zip End

14:14:36 685 15 October 2019  Message :- get Download paramenter 1st time

14:14:37 45 15 October 2019  Message :- start vishal task

14:14:37 685 15 October 2019  Message :- end vishal task

14:14:37 716 15 October 2019  Message :- first time download

14:14:37 716 15 October 2019  Message :-  Done version

14:14:37 716 15 October 2019  Message :-  start Port

14:14:37 748 15 October 2019  Message :-  Got Port

14:14:37 748 15 October 2019  Message :- start opening port

14:14:37 748 15 October 2019  Message :- port open 

14:14:37 763 15 October 2019  Message :- Done ctor, start event instialize

14:14:37 763 15 October 2019  Message :-  open call

14:14:37 763 15 October 2019  Message :- close hota open kela done 

14:14:37 779 15 October 2019  Message :-  open call end ,  start Port Done in PP3 class

14:14:37 794 15 October 2019  Message :-  sent 1st

14:14:38 29 15 October 2019  Message :-  Got 1

14:14:38 185 15 October 2019  Message :-  started sending Application

14:14:38 201 15 October 2019  Message :- 1st cha response 221

14:14:38 295 15 October 2019  Message :- 2st cha response 221

14:14:38 560 15 October 2019  Message :- Project cha response 221 Completed :) 

14:14:38 591 15 October 2019  Message :- port Exist and it is Closed

14:14:38 591 15 October 2019  Message :- End 100%

14:15:07 990 15 October 2019  Message :- start opening port

14:15:08 6 15 October 2019  Message :- port open 

14:15:08 6 15 October 2019  Message :- close hota open kela done 

14:15:08 22 15 October 2019  Message :- port Exist and it is Closed

14:15:09 818 15 October 2019  Message :- Start Log.....!!!

windowsName : Windows 10 Enterprise
version : 6.3
build : 18362
Product ID : 1814
64 Bit operating system? : Yes
===========================================Start==========================================
Caption : Intel64 Family 6 Model 142 Stepping 9
CreationClassName : Win32_Processor
CurrentClockSpeed : 2600
CurrentVoltage : 8
Manufacturer : GenuineIntel
MaxClockSpeed : 2701
Name : Intel(R) Core(TM) i5-7200U CPU @ 2.50GHz
NumberOfCores : 2
NumberOfLogicalProcessors : 4
PowerManagementSupported : False
Status : OK
=========================================END============================================

14:16:07 309 15 October 2019  Message :- Save call Start

14:16:07 762 15 October 2019  Message :- Start Log.....!!!

14:16:07 762 15 October 2019  Message :- Zip Start AD

14:16:07 871 15 October 2019  Message :- Zip End

14:16:09 277 15 October 2019  Message :- get Download paramenter 1st time

14:16:09 683 15 October 2019  Message :- start vishal task

14:16:10 620 15 October 2019  Message :- end vishal task

14:16:10 652 15 October 2019  Message :- first time download

14:16:10 652 15 October 2019  Message :-  Done version

14:16:10 667 15 October 2019  Message :-  start Port

14:16:10 683 15 October 2019  Message :-  Got Port

14:16:10 683 15 October 2019  Message :- start opening port

14:16:10 683 15 October 2019  Message :- port open 

14:16:10 698 15 October 2019  Message :- Done ctor, start event instialize

14:16:10 698 15 October 2019  Message :-  open call

14:16:10 714 15 October 2019  Message :- close hota open kela done 

14:16:11 745 15 October 2019  Message :-  open call end ,  start Port Done in PP3 class

14:16:11 823 15 October 2019  Message :-  sent 1st

14:16:12 42 15 October 2019  Message :-  Got 1

14:16:12 214 15 October 2019  Message :-  started sending Application

14:16:12 214 15 October 2019  Message :- 1st cha response 221

14:16:12 292 15 October 2019  Message :- 2st cha response 221

14:16:12 557 15 October 2019  Message :- Project cha response 221 Completed :) 

14:16:12 651 15 October 2019  Message :- port Exist and it is Closed

14:16:12 667 15 October 2019  Message :- End 100%

14:16:41 597 15 October 2019  Message :- start opening port

14:16:41 597 15 October 2019  Message :- port open 

14:16:41 613 15 October 2019  Message :- close hota open kela done 

14:16:41 613 15 October 2019  Message :- port Exist and it is Closed

14:16:52 579 15 October 2019  Message :- Save call Start

14:16:52 860 15 October 2019  Message :- Start Log.....!!!

14:16:52 860 15 October 2019  Message :- Zip Start AD

14:16:52 954 15 October 2019  Message :- Zip End

14:17:13 871 15 October 2019  Message :- Save call Start

14:17:14 121 15 October 2019  Message :- Start Log.....!!!

14:17:14 121 15 October 2019  Message :- Zip Start AD

14:17:14 215 15 October 2019  Message :- Zip End

14:17:15 308 15 October 2019  Message :- get Download paramenter 1st time

14:17:15 683 15 October 2019  Message :- start vishal task

14:17:16 464 15 October 2019  Message :- end vishal task

14:17:16 480 15 October 2019  Message :- first time download

14:17:16 495 15 October 2019  Message :-  Done version

14:17:16 495 15 October 2019  Message :-  start Port

14:17:16 511 15 October 2019  Message :-  Got Port

14:17:16 511 15 October 2019  Message :- start opening port

14:17:16 527 15 October 2019  Message :- port open 

14:17:16 527 15 October 2019  Message :- Done ctor, start event instialize

14:17:16 527 15 October 2019  Message :-  open call

14:17:16 542 15 October 2019  Message :- close hota open kela done 

14:17:16 542 15 October 2019  Message :-  open call end ,  start Port Done in PP3 class

14:17:16 573 15 October 2019  Message :-  sent 1st

14:17:16 792 15 October 2019  Message :-  Got 1

14:17:16 949 15 October 2019  Message :-  started sending Application

14:17:16 964 15 October 2019  Message :- 1st cha response 221

14:17:17 58 15 October 2019  Message :- 2st cha response 221

14:17:17 324 15 October 2019  Message :- Project cha response 221 Completed :) 

14:17:17 355 15 October 2019  Message :- port Exist and it is Closed

14:17:17 355 15 October 2019  Message :- End 100%

14:18:32 727 15 October 2019  Message :- start opening port

14:18:32 727 15 October 2019  Message :- port open 

14:18:32 742 15 October 2019  Message :- close hota open kela done 

14:18:32 742 15 October 2019  Message :- port Exist and it is Closed

14:19:34 294 15 October 2019  Message :- start opening port

14:19:34 294 15 October 2019  Message :- port open 

14:19:34 309 15 October 2019  Message :- close hota open kela done 

14:19:34 309 15 October 2019  Message :- port Exist and it is Closed

14:23:28 587 15 October 2019  Message :- start opening port

14:23:28 603 15 October 2019  Message :- port open 

14:23:28 618 15 October 2019  Message :- close hota open kela done 

14:23:28 618 15 October 2019  Message :- port Exist and it is Closed

14:24:12 835 15 October 2019  Message :- Save call Start

14:24:13 179 15 October 2019  Message :- Start Log.....!!!

14:24:13 179 15 October 2019  Message :- Zip Start AD

14:24:13 273 15 October 2019  Message :- Zip End

14:24:14 741 15 October 2019  Message :- get Download paramenter 1st time

14:24:15 116 15 October 2019  Message :- start vishal task

14:24:15 881 15 October 2019  Message :- end vishal task

14:24:15 913 15 October 2019  Message :- first time download

14:24:15 913 15 October 2019  Message :-  Done version

14:24:15 913 15 October 2019  Message :-  start Port

14:24:15 928 15 October 2019  Message :-  Got Port

14:24:15 944 15 October 2019  Message :- start opening port

14:24:15 944 15 October 2019  Message :- port open 

14:24:15 944 15 October 2019  Message :- Done ctor, start event instialize

14:24:15 959 15 October 2019  Message :-  open call

14:24:15 959 15 October 2019  Message :- close hota open kela done 

14:24:15 975 15 October 2019  Message :-  open call end ,  start Port Done in PP3 class

14:24:16 6 15 October 2019  Message :-  sent 1st

14:24:16 225 15 October 2019  Message :-  Got 1

14:24:16 413 15 October 2019  Message :- Start 0%

14:24:16 428 15 October 2019  Message :- pathvli ek

14:24:16 444 15 October 2019  Message :- 1st cha response 221

14:24:16 538 15 October 2019  Message :- 2st cha response 221

14:24:16 803 15 October 2019  Message :- Project cha response 221 Completed :) 

14:24:16 850 15 October 2019  Message :- port Exist and it is Closed

14:24:16 850 15 October 2019  Message :- End 100%

14:25:44 461 15 October 2019  Message :- start opening port

14:25:44 476 15 October 2019  Message :- port open 

14:25:44 476 15 October 2019  Message :- close hota open kela done 

14:25:44 492 15 October 2019  Message :- port Exist and it is Closed

14:25:52 515 15 October 2019  Message :- Save call Start

14:25:52 796 15 October 2019  Message :- Start Log.....!!!

14:25:52 811 15 October 2019  Message :- Zip Start AD

14:25:52 890 15 October 2019  Message :- Zip End

14:25:54 155 15 October 2019  Message :- get Download paramenter 1st time

14:25:54 530 15 October 2019  Message :- start vishal task

14:25:55 217 15 October 2019  Message :- end vishal task

14:25:55 264 15 October 2019  Message :- first time download

14:25:55 295 15 October 2019  Message :-  Done version

14:25:55 311 15 October 2019  Message :-  start Port

14:25:55 342 15 October 2019  Message :-  Got Port

14:25:55 342 15 October 2019  Message :- start opening port

14:25:55 358 15 October 2019  Message :- port open 

14:25:55 358 15 October 2019  Message :- Done ctor, start event instialize

14:25:55 373 15 October 2019  Message :-  open call

14:25:55 373 15 October 2019  Message :- close hota open kela done 

14:25:55 389 15 October 2019  Message :-  open call end ,  start Port Done in PP3 class

14:25:55 420 15 October 2019  Message :-  sent 1st

14:25:55 639 15 October 2019  Message :-  Got 1

14:25:55 795 15 October 2019  Message :-  started sending Application

14:25:55 811 15 October 2019  Message :- 1st cha response 221

14:25:55 905 15 October 2019  Message :- 2st cha response 221

14:25:56 170 15 October 2019  Message :- Project cha response 221 Completed :) 

14:25:56 233 15 October 2019  Message :- port Exist and it is Closed

14:25:56 233 15 October 2019  Message :- End 100%

14:27:20 569 15 October 2019  Message :- start opening port

14:27:20 569 15 October 2019  Message :- port open 

14:27:20 585 15 October 2019  Message :- close hota open kela done 

14:27:20 585 15 October 2019  Message :- port Exist and it is Closed

14:28:00 615 15 October 2019  Message :- start opening port

14:28:00 615 15 October 2019  Message :- port open 

14:28:00 630 15 October 2019  Message :- close hota open kela done 

14:28:00 630 15 October 2019  Message :- port Exist and it is Closed

14:34:32 393 15 October 2019  Message :- Start Log.....!!!

14:36:15 340 15 October 2019  Message :- Start Log.....!!!

14:36:16 199 15 October 2019  Message :- Save call Start

14:36:16 433 15 October 2019  Message :- Start Log.....!!!

14:36:16 433 15 October 2019  Message :- Zip Start AD

14:36:16 527 15 October 2019  Message :- Zip End

14:36:18 11 15 October 2019  Message :- get Download paramenter 1st time

14:36:18 370 15 October 2019  Message :- start vishal task

14:36:19 42 15 October 2019  Message :- end vishal task

14:36:19 73 15 October 2019  Message :- first time download

14:36:19 89 15 October 2019  Message :-  Done version

14:36:19 89 15 October 2019  Message :-  start Port

14:36:19 120 15 October 2019  Message :-  Got Port

14:36:19 120 15 October 2019  Message :- start opening port

14:36:19 136 15 October 2019  Message :- port open 

14:36:19 136 15 October 2019  Message :- Done ctor, start event instialize

14:36:19 136 15 October 2019  Message :-  open call

14:36:19 151 15 October 2019  Message :- close hota open kela done 

14:36:19 151 15 October 2019  Message :-  open call end ,  start Port Done in PP3 class

14:36:19 198 15 October 2019  Message :-  sent 1st

14:36:19 417 15 October 2019  Message :-  Got 1

14:36:19 557 15 October 2019  Message :- Start 0%

14:36:19 573 15 October 2019  Message :- pathvli ek

14:36:19 589 15 October 2019  Message :- 1st cha response 221

14:36:19 682 15 October 2019  Message :- 2st cha response 221

14:36:19 964 15 October 2019  Message :- Project cha response 221 Completed :) 

14:36:20 26 15 October 2019  Message :- port Exist and it is Closed

14:36:20 42 15 October 2019  Message :- End 100%

14:39:24 504 15 October 2019  Message :- Save call Start

14:39:25 4 15 October 2019  Message :- Start Log.....!!!

14:39:25 19 15 October 2019  Message :- Zip Start AD

14:39:25 113 15 October 2019  Message :- Zip End

14:39:26 425 15 October 2019  Message :- get Download paramenter 1st time

14:39:26 800 15 October 2019  Message :- start vishal task

14:39:27 472 15 October 2019  Message :- end vishal task

14:39:27 519 15 October 2019  Message :- first time download

14:39:27 550 15 October 2019  Message :-  Done version

14:39:27 566 15 October 2019  Message :-  start Port

14:39:27 597 15 October 2019  Message :-  Got Port

14:39:27 612 15 October 2019  Message :- start opening port

14:39:27 612 15 October 2019  Message :- port open 

14:39:27 612 15 October 2019  Message :- Done ctor, start event instialize

14:39:27 628 15 October 2019  Message :-  open call

14:39:27 628 15 October 2019  Message :- close hota open kela done 

14:39:27 644 15 October 2019  Message :-  open call end ,  start Port Done in PP3 class

14:39:27 691 15 October 2019  Message :-  sent 1st

14:39:27 910 15 October 2019  Message :-  Got 1

14:39:28 97 15 October 2019  Message :- Start 0%

14:39:28 112 15 October 2019  Message :- pathvli ek

14:39:28 144 15 October 2019  Message :- 1st cha response 221

14:39:28 222 15 October 2019  Message :- 2st cha response 221

14:39:28 597 15 October 2019  Message :- Project cha response 221 Completed :) 

14:39:28 690 15 October 2019  Message :- port Exist and it is Closed

14:39:28 690 15 October 2019  Message :- End 100%

14:39:46 686 15 October 2019  Message :- Save call Start

14:39:47 186 15 October 2019  Message :- Start Log.....!!!

14:39:47 186 15 October 2019  Message :- Zip Start AD

14:39:47 295 15 October 2019  Message :- Zip End

14:39:48 514 15 October 2019  Message :- get Download paramenter 1st time

14:39:48 873 15 October 2019  Message :- start vishal task

14:39:49 514 15 October 2019  Message :- end vishal task

14:39:49 560 15 October 2019  Message :- first time download

14:39:49 560 15 October 2019  Message :-  Done version

14:39:49 576 15 October 2019  Message :-  start Port

14:39:49 592 15 October 2019  Message :-  Got Port

14:39:49 607 15 October 2019  Message :- start opening port

14:39:49 623 15 October 2019  Message :- port open 

14:39:49 639 15 October 2019  Message :- Done ctor, start event instialize

14:39:49 670 15 October 2019  Message :-  open call

14:39:49 685 15 October 2019  Message :- close hota open kela done 

14:39:49 685 15 October 2019  Message :-  open call end ,  start Port Done in PP3 class

14:39:49 732 15 October 2019  Message :-  sent 1st

14:39:49 951 15 October 2019  Message :-  Got 1

14:39:50 139 15 October 2019  Message :-  started sending Application

14:39:50 170 15 October 2019  Message :- 1st cha response 221

14:39:50 279 15 October 2019  Message :- 2st cha response 221

14:39:50 670 15 October 2019  Message :- Project cha response 221 Completed :) 

14:39:50 732 15 October 2019  Message :- port Exist and it is Closed

14:39:50 732 15 October 2019  Message :- End 100%

14:43:23 926 15 October 2019  Message :- Save call Start

14:43:24 223 15 October 2019  Message :- Start Log.....!!!

14:43:24 239 15 October 2019  Message :- Zip Start AD

14:43:24 317 15 October 2019  Message :- Zip End

14:43:25 785 15 October 2019  Message :- get Download paramenter 1st time

14:43:26 160 15 October 2019  Message :- start vishal task

14:43:26 879 15 October 2019  Message :- end vishal task

14:43:26 910 15 October 2019  Message :- first time download

14:43:26 910 15 October 2019  Message :-  Done version

14:43:26 910 15 October 2019  Message :-  start Port

14:43:26 941 15 October 2019  Message :-  Got Port

14:43:26 941 15 October 2019  Message :- start opening port

14:43:26 941 15 October 2019  Message :- port open 

14:43:26 941 15 October 2019  Message :- Done ctor, start event instialize

14:43:26 957 15 October 2019  Message :-  open call

14:43:26 972 15 October 2019  Message :- close hota open kela done 

14:43:26 972 15 October 2019  Message :-  open call end ,  start Port Done in PP3 class

14:43:27 4 15 October 2019  Message :-  sent 1st

14:43:27 223 15 October 2019  Message :-  Got 1

14:43:27 394 15 October 2019  Message :-  started sending Application

14:43:27 426 15 October 2019  Message :- 1st cha response 221

14:43:27 504 15 October 2019  Message :- 2st cha response 221

14:43:27 878 15 October 2019  Message :- Project cha response 221 Completed :) 

14:43:27 910 15 October 2019  Message :- port Exist and it is Closed

14:43:27 925 15 October 2019  Message :- End 100%

14:45:07 251 15 October 2019  Message :- Save call Start

14:45:07 533 15 October 2019  Message :- Start Log.....!!!

14:45:07 548 15 October 2019  Message :- Zip Start AD

14:45:07 642 15 October 2019  Message :- Zip End

14:45:09 751 15 October 2019  Message :- get Download paramenter 1st time

14:45:10 110 15 October 2019  Message :- start vishal task

14:45:10 188 15 October 2019  Message :- end vishal task

14:45:10 251 15 October 2019  Message :- first time download

14:45:10 251 15 October 2019  Message :-  Done version

14:45:10 266 15 October 2019  Message :-  start Port

14:45:10 282 15 October 2019  Message :-  Got Port

14:45:10 298 15 October 2019  Message :- start opening port

14:45:10 298 15 October 2019  Message :- port open 

14:45:10 298 15 October 2019  Message :- Done ctor, start event instialize

14:45:10 313 15 October 2019  Message :-  open call

14:45:10 313 15 October 2019  Message :- close hota open kela done 

14:45:10 329 15 October 2019  Message :-  open call end ,  start Port Done in PP3 class

14:45:10 360 15 October 2019  Message :-  sent 1st

14:45:10 579 15 October 2019  Message :-  Got 1

14:45:10 719 15 October 2019  Message :-  started sending Runtime

14:45:10 735 15 October 2019  Message :- 1st cha response 221

14:45:10 751 15 October 2019  Message :- Start sending File No :1

14:45:17 108 15 October 2019  Message :- Done File No :1

14:45:17 187 15 October 2019  Message :- Done both file..

14:45:18 265 15 October 2019  Message :- Runtime Cha response 221 Completed :) 

14:45:18 311 15 October 2019  Message :- port Exist and it is Closed

14:46:50 429 15 October 2019  Message :- Start Log.....!!!

14:48:09 770 15 October 2019  Message :- Save call Start

14:48:10 82 15 October 2019  Message :- Start Log.....!!!

14:48:10 98 15 October 2019  Message :- Zip Start AD

14:48:10 176 15 October 2019  Message :- Zip End

14:48:12 660 15 October 2019  Message :- get Download paramenter 1st time

14:48:13 50 15 October 2019  Message :- start vishal task

14:48:13 863 15 October 2019  Message :- end vishal task

14:48:13 925 15 October 2019  Message :- first time download

14:48:13 925 15 October 2019  Message :-  Done version

14:48:13 941 15 October 2019  Message :-  start Port

14:48:13 972 15 October 2019  Message :-  Got Port

14:48:13 988 15 October 2019  Message :- start opening port

14:48:13 988 15 October 2019  Message :- port open 

14:48:14 3 15 October 2019  Message :- Done ctor, start event instialize

14:48:14 3 15 October 2019  Message :-  open call

14:48:14 19 15 October 2019  Message :- close hota open kela done 

14:48:14 35 15 October 2019  Message :-  open call end ,  start Port Done in PP3 class

14:48:14 81 15 October 2019  Message :-  sent 1st

14:48:14 300 15 October 2019  Message :-  Got 1

14:48:14 472 15 October 2019  Message :- Start 0%

14:48:14 488 15 October 2019  Message :- pathvli ek

14:48:14 519 15 October 2019  Message :- 1st cha response 221

14:48:14 597 15 October 2019  Message :- 2st cha response 221

14:48:14 957 15 October 2019  Message :- Project cha response 221 Completed :) 

14:48:15 19 15 October 2019  Message :- port Exist and it is Closed

14:48:15 34 15 October 2019  Message :- End 100%

14:50:48 617 15 October 2019  Message :- Save call Start

14:50:48 930 15 October 2019  Message :- Start Log.....!!!

14:50:48 930 15 October 2019  Message :- Zip Start AD

14:50:49 23 15 October 2019  Message :- Zip End

14:50:50 476 15 October 2019  Message :- get Download paramenter 1st time

14:50:50 851 15 October 2019  Message :- start vishal task

14:50:51 507 15 October 2019  Message :- end vishal task

14:50:51 538 15 October 2019  Message :- first time download

14:50:51 538 15 October 2019  Message :-  Done version

14:50:51 554 15 October 2019  Message :-  start Port

14:50:51 570 15 October 2019  Message :-  Got Port

14:50:51 570 15 October 2019  Message :- start opening port

14:50:51 570 15 October 2019  Message :- port open 

14:50:51 585 15 October 2019  Message :- Done ctor, start event instialize

14:50:51 585 15 October 2019  Message :-  open call

14:50:51 601 15 October 2019  Message :- close hota open kela done 

14:50:51 601 15 October 2019  Message :-  open call end ,  start Port Done in PP3 class

14:50:51 632 15 October 2019  Message :-  sent 1st

14:50:51 851 15 October 2019  Message :-  Got 1

14:50:52 23 15 October 2019  Message :- Start 0%

14:50:52 38 15 October 2019  Message :- pathvli ek

14:50:52 70 15 October 2019  Message :- 1st cha response 221

14:50:52 164 15 October 2019  Message :- 2st cha response 221

14:50:52 523 15 October 2019  Message :- Project cha response 221 Completed :) 

14:50:52 585 15 October 2019  Message :- port Exist and it is Closed

14:50:52 601 15 October 2019  Message :- End 100%

14:53:29 78 15 October 2019  Message :- Save call Start

14:53:29 438 15 October 2019  Message :- Start Log.....!!!

14:53:29 438 15 October 2019  Message :- Zip Start AD

14:53:29 531 15 October 2019  Message :- Zip End

14:53:30 859 15 October 2019  Message :- get Download paramenter 1st time

14:53:31 234 15 October 2019  Message :- start vishal task

14:53:31 906 15 October 2019  Message :- end vishal task

14:53:31 937 15 October 2019  Message :- first time download

14:53:31 937 15 October 2019  Message :-  Done version

14:53:31 937 15 October 2019  Message :-  start Port

14:53:31 953 15 October 2019  Message :-  Got Port

14:53:31 968 15 October 2019  Message :- start opening port

14:53:31 968 15 October 2019  Message :- port open 

14:53:31 968 15 October 2019  Message :- Done ctor, start event instialize

14:53:31 984 15 October 2019  Message :-  open call

14:53:31 984 15 October 2019  Message :- close hota open kela done 

14:53:32 0 15 October 2019  Message :-  open call end ,  start Port Done in PP3 class

14:53:32 31 15 October 2019  Message :-  sent 1st

14:53:32 250 15 October 2019  Message :-  Got 1

14:53:32 421 15 October 2019  Message :-  started sending Application

14:53:32 452 15 October 2019  Message :- 1st cha response 221

14:53:32 546 15 October 2019  Message :- 2st cha response 221

14:53:32 906 15 October 2019  Message :- Project cha response 221 Completed :) 

14:53:32 968 15 October 2019  Message :- port Exist and it is Closed

14:53:32 984 15 October 2019  Message :- End 100%

14:54:34 334 15 October 2019  Message :- Start Log.....!!!

14:54:38 192 15 October 2019  Message :- Start Log.....!!!

14:54:43 660 15 October 2019  Message :- Start Log.....!!!

windowsName : Windows 10 Enterprise
version : 6.3
build : 18362
Product ID : 1814
64 Bit operating system? : Yes
===========================================Start==========================================
Caption : Intel64 Family 6 Model 142 Stepping 9
CreationClassName : Win32_Processor
CurrentClockSpeed : 2600
CurrentVoltage : 8
Manufacturer : GenuineIntel
MaxClockSpeed : 2701
Name : Intel(R) Core(TM) i5-7200U CPU @ 2.50GHz
NumberOfCores : 2
NumberOfLogicalProcessors : 4
PowerManagementSupported : False
Status : OK
=========================================END============================================

15:16:43 439 15 October 2019  Message :- Start Log.....!!!

15:16:44 549 15 October 2019  Message :- Save call Start

15:16:44 923 15 October 2019  Message :- Start Log.....!!!

15:16:44 939 15 October 2019  Message :- Zip Start AD

15:16:45 48 15 October 2019  Message :- Zip End

15:16:48 594 15 October 2019  Message :- get Download paramenter 1st time

15:16:48 969 15 October 2019  Message :- start vishal task

15:16:50 32 15 October 2019  Message :- end vishal task

15:16:50 47 15 October 2019  Message :- first time download

15:16:50 47 15 October 2019  Message :-  Done version

15:16:50 63 15 October 2019  Message :-  start Port

15:16:50 78 15 October 2019  Message :-  Got Port

15:16:50 78 15 October 2019  Message :- start opening port

15:16:50 94 15 October 2019  Message :- port open 

15:16:50 94 15 October 2019  Message :- Done ctor, start event instialize

15:16:50 94 15 October 2019  Message :-  open call

15:16:50 110 15 October 2019  Message :- close hota open kela done 

15:16:50 110 15 October 2019  Message :-  open call end ,  start Port Done in PP3 class

15:16:50 141 15 October 2019  Message :-  sent 1st

15:16:50 360 15 October 2019  Message :-  Got 1

15:16:50 516 15 October 2019  Message :-  started sending Application

15:16:50 547 15 October 2019  Message :- 1st cha response 221

15:16:50 657 15 October 2019  Message :- 2st cha response 221

15:16:51 32 15 October 2019  Message :- Project cha response 221 Completed :) 

15:16:51 109 15 October 2019  Message :- port Exist and it is Closed

15:16:51 109 15 October 2019  Message :- End 100%

15:22:14 865 15 October 2019  Message :- Start Log.....!!!

15:26:09 552 15 October 2019  Message :- Start Log.....!!!

15:26:33 114 15 October 2019  Message :- Start Log.....!!!

15:27:45 333 15 October 2019  Message :- Save call Start

15:27:45 692 15 October 2019  Message :- Start Log.....!!!

15:27:45 692 15 October 2019  Message :- Zip Start AD

15:27:45 786 15 October 2019  Message :- Zip End

15:27:47 270 15 October 2019  Message :- get Download paramenter 1st time

15:27:47 644 15 October 2019  Message :- start vishal task

15:27:48 332 15 October 2019  Message :- end vishal task

15:27:48 363 15 October 2019  Message :- first time download

15:27:48 363 15 October 2019  Message :-  Done version

15:27:48 363 15 October 2019  Message :-  start Port

15:27:48 394 15 October 2019  Message :-  Got Port

15:27:48 394 15 October 2019  Message :- start opening port

15:27:48 394 15 October 2019  Message :- port open 

15:27:48 394 15 October 2019  Message :- Done ctor, start event instialize

15:27:48 410 15 October 2019  Message :-  open call

15:27:48 410 15 October 2019  Message :- close hota open kela done 

15:27:48 426 15 October 2019  Message :-  open call end ,  start Port Done in PP3 class

15:27:48 457 15 October 2019  Message :-  sent 1st

15:27:48 676 15 October 2019  Message :-  Got 1

15:27:48 848 15 October 2019  Message :-  started sending Application

15:27:48 879 15 October 2019  Message :- 1st cha response 221

15:27:48 973 15 October 2019  Message :- 2st cha response 221

15:27:49 363 15 October 2019  Message :- Project cha response 221 Completed :) 

15:27:49 410 15 October 2019  Message :- port Exist and it is Closed

15:27:49 410 15 October 2019  Message :- End 100%

15:27:53 143 15 October 2019  Message :- Start Log.....!!!

15:28:17 904 15 October 2019  Message :- Start Log.....!!!

windowsName : Windows 10 Enterprise
version : 6.3
build : 18362
Product ID : 1814
64 Bit operating system? : Yes
===========================================Start==========================================
Caption : Intel64 Family 6 Model 142 Stepping 9
CreationClassName : Win32_Processor
CurrentClockSpeed : 2600
CurrentVoltage : 8
Manufacturer : GenuineIntel
MaxClockSpeed : 2701
Name : Intel(R) Core(TM) i5-7200U CPU @ 2.50GHz
NumberOfCores : 2
NumberOfLogicalProcessors : 4
PowerManagementSupported : False
Status : OK
=========================================END============================================

15:34:57 51 15 October 2019  Message :- Start Log.....!!!

15:36:25 290 15 October 2019  Message :- Start Log.....!!!
